Winnipeg, Manitoba

7:47 AM CDT on May 24, 2017 (GMT -0500)
Winnipeg International Airport

Weather History for CYWG - November, 2012

Change the Weather History Date:

Sunday, November 18, 2012

  Actual Average Record
Temperature  
Mean Temperature 23 °F -  
Max Temperature 39 °F 21 °F 46 °F (2004)
Min Temperature 7 °F 4 °F -9 °F (1996)
Degree Days  
Heating Degree Days 42    
Moisture  
Dew Point 22 °F    
Average Humidity 94    
Maximum Humidity 100    
Minimum Humidity 81    
Precipitation  
Precipitation 0.00 in 0.03 in - ()
Sea Level Pressure  
Sea Level Pressure 30.03 in    
Wind  
Wind Speed 3 mph ()    
Max Wind Speed 12 mph    
Max Gust Speed -    
Visibility 6.1 miles    
Events Fog    
Averages and records for this station are not official NWS values.
T = Trace of Precipitation, MM = Missing Value Source: Averaged Metar Reports

Daily Weather History Graph

Daily Weather History Graph

Search for Another Location

Airport or City:

Trip Planner

Search our weather history database for the weather conditions in past years. The results will help you decide how hot, cold, wet, or windy it might be!

Date:

Astronomy

Nov. 18, 2012 Rise Set
Actual Time 7:47 AM CST 4:40 PM CST
Civil Twilight 7:11 AM CST 5:16 PM CST
Nautical Twilight 6:31 AM CST 5:56 PM CST
Astronomical Twilight 5:53 AM CST 6:34 PM CST
Moon 12:08 PM CST (11/18) 10:10 PM CST (11/18)
Length of Visible Light 10h 05m
Length of Day
8h 53m
Waxing Crescent, 30% of the Moon is Illuminated
Nov 18
Waxing Crescent
Nov 20
First Quarter
Nov 28
Full
Dec 6
Last Quarter
Dec 13
New

Hourly Weather History & Observations

Time (CST) Temp. Windchill Dew Point Humidity Pressure Visibility Wind Dir Wind Speed Gust Speed Precip Events Conditions
12:00 AM 11 °F - 10 °F 90% 30.12 in 0 mi Calm Calm - -  
12:00 AM 10.4 °F - 8.6 °F 92% 30.12 in 5.0 mi Calm Calm - N/A   Mostly Cloudy
12:42 AM 12.2 °F 6.1 °F - N/A% - 8.0 mi East 3.5 mph - N/A   Partly Cloudy
1:00 AM 12.2 °F - 12.2 °F 100% 30.10 in 12.0 mi Calm Calm - N/A Fog Shallow Fog
2:00 AM 10.4 °F - 8.6 °F 92% 30.09 in 12.0 mi Calm Calm - N/A   Clear
3:00 AM 8.6 °F 2.0 °F 6.8 °F 92% 30.09 in 12.0 mi NNE 3.5 mph - N/A   Clear
4:00 AM 12.2 °F 6.1 °F 10.4 °F 92% 30.08 in 8.0 mi ESE 3.5 mph - N/A   Scattered Clouds
4:09 AM 12.2 °F - - N/A% - 5.0 mi Calm Calm - N/A   Mostly Cloudy
4:18 AM 10.4 °F 4.0 °F - N/A% - 4.0 mi NNE 3.5 mph - N/A   Overcast
5:00 AM 14.0 °F 6.5 °F 12.2 °F 93% 30.07 in 4.0 mi NE 4.6 mph - N/A   Overcast
5:33 AM 14.0 °F 8.2 °F - N/A% - 3.0 mi East 3.5 mph - N/A   Overcast
5:48 AM 12.2 °F - - N/A% - 2.0 mi North 2.3 mph - N/A   Overcast
6:00 AM 12 °F - 11 °F 94% 30.08 in 0 mi Calm Calm - -   Overcast
6:00 AM 12.2 °F 6.1 °F 10.4 °F 92% 30.07 in 1.0 mi NNE 3.5 mph - N/A   Overcast
6:10 AM 12.2 °F 6.1 °F - N/A% - 0.2 mi ENE 3.5 mph - N/A Fog Light Freezing Fog
6:30 AM 12.2 °F 6.1 °F - N/A% - 2.0 mi NE 3.5 mph - N/A   Overcast
6:49 AM 10.4 °F 4.0 °F - N/A% - 3.0 mi NNE 3.5 mph - N/A   Overcast
7:00 AM 10.4 °F 2.2 °F 10.4 °F 100% 30.06 in 4.0 mi NNE 4.6 mph - N/A   Scattered Clouds
8:00 AM 12.2 °F 6.1 °F 10.4 °F 92% 30.06 in 4.0 mi NNE 3.5 mph - N/A   Partly Cloudy
9:00 AM 15.8 °F 10.2 °F 14.0 °F 93% 30.05 in 4.0 mi ESE 3.5 mph - N/A   Clear
10:00 AM 23.0 °F 18.4 °F 23.0 °F 100% 30.05 in 5.0 mi SSE 3.5 mph - N/A   Clear
11:00 AM 30.2 °F 25.4 °F 30.2 °F 100% 30.04 in 6.0 mi SSE 4.6 mph - N/A   Clear
12:00 PM 35 °F - 35 °F 99% 30.01 in 7 mi Calm Calm - -  
12:00 PM 35.6 °F 32.8 °F 35.6 °F 100% 30.01 in 8.0 mi SSE 3.5 mph - N/A   Clear
1:00 PM 37.4 °F 32.1 °F 33.8 °F 87% 30.00 in 8.0 mi SSE 6.9 mph - N/A   Clear
2:00 PM 37.4 °F 29.8 °F 33.8 °F 87% 29.99 in 8.0 mi SSE 11.5 mph - N/A   Clear
3:00 PM 39.2 °F 33.0 °F 33.8 °F 81% 29.99 in 10.0 mi South 9.2 mph - N/A   Clear
4:00 PM 37.4 °F 32.8 °F 33.8 °F 87% 29.99 in 10.0 mi South 5.8 mph - N/A   Clear
5:00 PM 33.8 °F 27.7 °F 32.0 °F 93% 29.98 in 8.0 mi SE 6.9 mph - N/A   Clear
6:00 PM 32 °F - 31 °F 92% 29.99 in 6 mi Calm Calm - -  
6:00 PM 32.0 °F 28.7 °F 30.2 °F 93% 29.99 in 8.0 mi SSE 3.5 mph - N/A   Clear
7:00 PM 32.0 °F 26.4 °F 30.2 °F 93% 29.98 in 8.0 mi SSE 5.8 mph - N/A   Clear
8:00 PM 28.4 °F 24.6 °F 28.4 °F 100% 29.96 in 8.0 mi SSE 3.5 mph - N/A   Clear
9:00 PM 28.4 °F 23.3 °F 26.6 °F 93% 29.95 in 8.0 mi SSE 4.6 mph - N/A Fog Shallow Fog
10:00 PM 30.2 °F 24.3 °F 28.4 °F 93% 29.94 in 10.0 mi SSE 5.8 mph - N/A Fog Shallow Fog
11:00 PM 28.4 °F 23.3 °F 28.4 °F 100% 29.94 in 10.0 mi SE 4.6 mph - N/A Fog Shallow Fog